This is the latest recevied weather packets stored in our database for station/object LU1MQF-13. If no packets are shown the sender has not sent any weather packets the latest 10 day(s).
| Time | Temp. | Humidity | Pressure | Rain* | Wind** | Luminosity | Snow |
|---|---|---|---|---|---|---|---|
| 1778154133 | 16.11° C | 32% | 937.5 hPa | - | - | - | - |
| 1778153232 | 16.11° C | 32% | 937.5 hPa | - | - | - | - |
| 1778152333 | 16.11° C | 32% | 937.2 hPa | - | - | - | - |
| 1778151433 | 16.11° C | 34% | 937.1 hPa | - | - | - | - |
| 1778150533 | 16.11° C | 38% | 937.1 hPa | - | - | - | - |
| 1778149633 | 15° C | 31% | 937.2 hPa | - | - | - | - |
| 1778148732 | 16.11° C | 30% | 937.3 hPa | - | - | - | - |
| 1778147832 | 16.11° C | 30% | 937.2 hPa | - | - | - | - |
| 1778146932 | 16.11° C | 30% | 937.3 hPa | - | - | - | - |
| 1778146033 | 16.11° C | 30% | 937.1 hPa | - | - | - | - |
| 1778145132 | 16.11° C | 30% | 937 hPa | - | - | - | - |
| 1778144232 | 16.11° C | 30% | 937 hPa | - | - | - | - |
| 1778143333 | 16.11° C | 30% | 937 hPa | - | - | - | - |
| 1778142432 | 16.11° C | 30% | 936.8 hPa | - | - | - | - |
| 1778141532 | 17.22° C | 30% | 936.7 hPa | - | - | - | - |
| 1778140632 | 17.22° C | 30% | 936.1 hPa | - | - | - | - |
| 1778139732 | 17.22° C | 31% | 936 hPa | - | - | - | - |
| 1778138833 | 17.22° C | 31% | 935.6 hPa | - | - | - | - |
| 1778137932 | 17.22° C | 31% | 935.5 hPa | - | - | - | - |
| 1778137033 | 17.22° C | 31% | 935.1 hPa | - | - | - | - |
| 1778136133 | 17.22° C | 32% | 935.1 hPa | - | - | - | - |
| 1778135233 | 17.22° C | 31% | 935.4 hPa | - | - | - | - |
| 1778134332 | 17.78° C | 30% | 935.4 hPa | - | - | - | - |
| 1778133431 | 17.78° C | 30% | 935.3 hPa | - | - | - | - |
| 1778132532 | 17.78° C | 31% | 934.8 hPa | - | - | - | - |
* Rain since midnight (hover to see other rain measurements)
** Current wind speed in m/s (hover to see current wind gust speed)